Location: Bremen
(53.0758°N, 8.8072°E)
Time: 17:00:27
(UTC+02:00)

ISS - Visible Passes

Search period start: 21 September 2023 00:00
Search period end: 01 October 2023 00:00
Orbit: 414 x 422 km, 51.6° (Epoch: 21 September)

Date Brightness Start Highest point End Pass type
(mag) Time Alt. Az. Time Alt. Az. Time Alt. Az.
21 Sep -3.8 20:50:11 10° WSW 20:53:31 67° S 20:55:07 27° E visible
21 Sep -1.3 22:26:52 10° W 22:28:03 20° W 22:28:03 20° W visible
22 Sep -3.6 20:02:18 10° WSW 20:05:36 60° S 20:08:55 10° E visible
22 Sep -3.4 21:38:57 10° W 21:41:53 57° SW 21:41:53 57° SW visible
23 Sep -3.7 20:50:59 10° W 20:54:19 69° S 20:55:41 32° ESE visible
23 Sep -1.0 22:27:46 10° W 22:28:36 16° W 22:28:36 16° W visible
24 Sep -3.7 20:03:01 10° W 20:06:21 70° S 20:09:27 12° E visible
24 Sep -2.8 21:39:44 10° W 21:42:23 40° SW 21:42:23 40° SW visible
25 Sep -3.5 20:51:42 10° W 20:55:00 55° SSW 20:56:07 35° SE visible
25 Sep -0.7 22:28:45 10° W 22:29:02 11° W 22:29:02 11° W visible
26 Sep -3.6 20:03:39 10° W 20:06:58 64° S 20:09:52 13° ESE visible
26 Sep -2.0 21:40:30 10° W 21:42:47 26° SW 21:42:47 26° SW visible
27 Sep -2.7 20:52:19 10° W 20:55:27 36° SSW 20:56:31 28° SSE visible
28 Sep -3.0 20:04:10 10° W 20:07:24 46° SSW 20:10:16 12° SE visible
28 Sep -1.3 21:41:33 10° WSW 21:43:11 15° SW 21:43:11 15° SW visible
29 Sep -1.8 20:53:01 10° W 20:55:38 21° SSW 20:56:58 17° S visible
30 Sep -2.1 20:04:39 10° W 20:07:35 28° SSW 20:10:31 10° SSE visible
